[[{"header":{"parameterUnit":"m.s-1","parameterCategory":1,"la1":30.2992,"la2":30.254,"lo1":-89.0895,"lo2":-89.0443,"dy":0.0025,"dx":0.0025,"nx":19,"ny":19,"refTime":"2026-05-07T21:00:00:Z","depth":0,"parameterNumber":2,"parameterNumberName":"U-component_of_WINDS"},"data":[0,0,0,-3.6997,-3.7002,-3.7209,-3.721,-3.7452,-3.7454,0,0,0,0,0,0,0,0,0,0,0,-3.6924,-3.6925,-3.6997,-3.7002,-3.7209,-3.721,-3.7452,-3.7454,0,0,0,0,0,0,0,0,0,0,0,-3.6923,-3.6924,-3.6926,-3.7003,-3.7208,-3.721,-3.7452,-3.7303,0,0,0,0,0,0,0,0,0,0,-3.7106,-3.7026,-3.6924,-3.6926,-3.7004,-3.7208,-3.721,-3.7296,-3.7312,-3.735,0,-3.738,0,-3.7421,-3.7469,-3.747,0,0,0,-3.7011,-3.7012,-3.7079,-3.6926,-3.7006,-3.7208,-3.7118,-3.7306,-3.7324,-3.7371,-3.7383,-3.7393,-3.7425,-3.7471,-3.7472,-3.7655,-3.7655,0,0,-3.7,-3.6954,-3.7067,-3.709,-3.7058,-3.7111,-3.7124,-3.7317,-3.7327,-3.7384,-3.7399,-3.7429,-3.7472,-3.7474,-3.7655,-3.7655,0,0,0,-3.6961,-3.6945,-3.7009,-3.708,-3.7119,-3.7117,-3.7132,-3.7319,-3.7343,-3.7402,-3.7432,-3.7474,-3.7476,-3.7654,-3.7655,-3.7629,0,0,0,-3.6954,-3.6923,-3.7003,-3.6977,-3.7115,-3.7222,-3.7129,-3.733,-3.7353,-3.743,-3.7474,-3.7478,-3.7654,-3.7655,-3.7629,-3.7624,0,0,0,-3.6914,-3.6918,-3.6944,-3.6974,-3.7061,-3.722,-3.7255,-3.7336,-3.7371,-3.747,-3.7479,-3.7654,-3.7654,-3.7629,-3.7624,-3.7657,0,0,0,-3.6858,-3.6919,-3.6943,-3.7022,-3.7059,-3.7203,-3.7255,-3.7364,-3.7446,-3.7475,-3.7654,-3.7655,-3.7629,-3.7624,-3.7657,-3.7675,-3.7679,0,0,-3.6909,-3.6924,-3.6974,-3.7001,-3.7128,-3.7175,-3.7299,-3.7418,-3.747,-3.759,-3.7595,-3.7629,-3.7624,-3.7657,-3.7721,-3.7724,0,0,0,-3.6975,-3.701,-3.7054,-3.713,-3.7222,-3.7301,-3.7406,-3.745,-3.7554,-3.7522,-3.7653,-3.7651,-3.7672,-3.7683,-3.7686,-3.7706,-3.7658,-3.7658,-3.7658,-3.698,-3.7043,-3.713,-3.7217,-3.729,-3.7397,-3.7462,-3.754,-3.7582,-3.7612,-3.7647,-3.7679,-3.769,-3.7692,-3.7712,-3.7664,-3.7664,-3.7664,-3.7664,-3.7058,-3.7117,-3.7172,-3.7276,-3.7341,-3.7429,-3.7535,-3.7562,-3.7653,-3.7658,-3.7679,-3.7676,-3.7693,-3.7714,-3.7663,-3.7663,-3.7663,-3.7663,-3.7663,-3.7066,-3.7105,-3.7158,-3.7273,-3.7355,-3.7443,-3.7527,-3.7585,-3.764,-3.7661,-3.7704,-3.7704,-3.771,-3.7678,-3.7678,-3.7678,-3.7678,-3.7678,-3.7678,-3.7053,-3.7113,-3.7177,-3.7279,-3.7335,-3.7416,-3.7524,-3.7581,-3.7658,-3.7693,-3.7694,-3.7732,-3.7684,-3.7669,-3.768,-3.768,-3.768,-3.768,-3.7679,-3.7104,-3.7102,-3.72,-3.7256,-3.738,-3.7457,-3.753,-3.764,-3.7695,-3.7734,-3.7769,-3.7725,-3.7743,-3.7742,-3.7729,-3.7756,-3.7756,-3.7756,-3.7756,-3.7109,-3.7125,-3.7237,-3.7322,-3.7412,-3.7488,-3.7596,-3.7681,-3.7768,-3.7806,-3.7811,-3.7801,-3.7797,-3.7818,-3.7815,-3.7805,-3.785,-3.785,-3.785,-3.7143,-3.717,-3.725,-3.7336,-3.7438,-3.7523,-3.7626,-3.7721,-3.782,-3.7855,-3.7837,-3.7833,-3.7817,-3.7809,-3.7841,-3.7835,-3.7817,0,0]},{"header":{"parameterUnit":"m.s-1","parameterCategory":1,"la1":30.2992,"la2":30.254,"lo1":-89.0895,"lo2":-89.0443,"dy":0.0025,"dx":0.0025,"nx":19,"ny":19,"refTime":"2026-05-07T21:00:00:Z","depth":0,"parameterNumber":3,"parameterNumberName":"V-component_of_WINDS"},"data":[0,0,0,4.2046,4.2049,4.2172,4.2172,4.2331,4.2333,0,0,0,0,0,0,0,0,0,0,0,4.2014,4.2015,4.2046,4.2049,4.2172,4.2173,4.2331,4.2333,0,0,0,0,0,0,0,0,0,0,0,4.2013,4.2015,4.2016,4.205,4.2172,4.2173,4.2331,4.2237,0,0,0,0,0,0,0,0,0,0,4.2117,4.2091,4.2014,4.2016,4.2051,4.2172,4.2173,4.2232,4.2243,4.2277,0,4.2311,0,4.2325,4.2344,4.2344,0,0,0,4.2046,4.2082,4.2112,4.2016,4.2052,4.2172,4.2116,4.2238,4.225,4.2291,4.2313,4.2319,4.2327,4.2345,4.2346,4.2562,4.2563,0,0,4.2039,4.2037,4.2104,4.212,4.2104,4.2112,4.212,4.2245,4.2268,4.2314,4.2323,4.233,4.2346,4.2347,4.2561,4.2562,0,0,0,4.2022,4.2032,4.2059,4.2114,4.2136,4.2115,4.2124,4.2263,4.2272,4.2324,4.2332,4.2347,4.2349,4.2559,4.2561,4.2618,0,0,0,4.2018,4.2022,4.2057,4.2056,4.2134,4.2201,4.2139,4.2263,4.2277,4.2331,4.2347,4.235,4.2558,4.256,4.2613,4.2644,0,0,0,4.2004,4.2021,4.204,4.2056,4.2109,4.2199,4.2216,4.2266,4.2282,4.2344,4.2351,4.2557,4.256,4.261,4.2638,4.2701,0,0,0,4.1989,4.2087,4.2041,4.2154,4.2108,4.2234,4.2215,4.2308,4.2369,4.2348,4.2558,4.2561,4.2608,4.2634,4.2697,4.2754,4.2778,0,0,4.2112,4.2102,4.2168,4.2131,4.2265,4.2216,4.2357,4.2413,4.242,4.2513,4.2519,4.2615,4.2638,4.27,4.291,4.2929,0,0,0,4.2207,4.2254,4.229,4.2349,4.2396,4.2438,4.2473,4.2493,4.2573,4.2468,4.2654,4.2668,4.2705,4.2732,4.2748,4.2779,4.2574,4.2573,4.2573,4.2377,4.2382,4.2493,4.2513,4.2569,4.2605,4.2651,4.2684,4.2671,4.2715,4.2743,4.287,4.2902,4.2914,4.2947,4.2773,4.2773,4.2773,4.2774,4.2558,4.2627,4.2608,4.2709,4.2713,4.2796,4.2834,4.2822,4.2899,4.2849,4.2882,4.2827,4.2934,4.2963,4.2778,4.2777,4.2777,4.2776,4.2776,4.2671,4.2704,4.2729,4.2814,4.2879,4.2894,4.297,4.297,4.2971,4.3003,4.3032,4.3031,4.303,4.3017,4.3017,4.3018,4.3018,4.3018,4.3019,4.2778,4.2804,4.2869,4.2927,4.2965,4.3014,4.305,4.3086,4.3126,4.312,4.312,4.3103,4.2944,4.2904,4.3026,4.3024,4.3023,4.3023,4.3022,4.296,4.2919,4.3019,4.3057,4.3125,4.3189,4.3188,4.3262,4.3291,4.3328,4.3304,4.3187,4.3176,4.3164,4.3131,4.3303,4.3303,4.3303,4.3303,4.3055,4.305,4.3153,4.3213,4.3272,4.3282,4.3393,4.3422,4.3445,4.3463,4.3438,4.3394,4.3381,4.3378,4.3361,4.333,4.3549,4.355,4.355,4.3167,4.3168,4.3264,4.3288,4.3341,4.3386,4.349,4.3558,4.3575,4.356,4.3477,4.3467,4.3396,4.3373,4.3356,4.3329,4.3272,0,0]}]]